Location: Lake Mineral Wells State Park
(32.8157°N, 98.0290°W)
Time: 05:26:01
(UTC-06:00)

Envisat - Pass Details

Date: 28 October 2019
Orbit: 764 x 766 km, 98.1° (Epoch: 22 November)

Event Time Altitude Azimuth Distance (km) Brightness Sun altitude
Rises 19:09:52 0° 149° (SSE) 3,218 6.0 -5.9°
Reaches altitude 10° 19:12:16 10° 143° (SE) 2,295 5.2 -6.4°
Maximum altitude 19:17:01 43° 73° (ENE) 1,073 3.3 -7.4°
Drops below altitude 10° 19:21:47 10° 3° (N) 2,306 5.4 -8.4°
Sets 19:24:11 0° 357° (N) 3,236 6.2 -8.9°
